NOAA 17 DEB, 48731

Orbit data source: Space-Track

NOAA 17 DEB, 48731 is space debris in SSO originally from a launch on Mon, 24 Jun 2002 UTC launched from the Air Force Western Test Range (AFWTR). Debris objects in space refer to the collection of defunct objects orbiting the Earth. Examples of debris include non-operational satellites, rocket bodies, and fragments generated from explosions, collisions, or faulty payload assembly.

Loading next visibility...
Identifier
48731, 2002-032BQ
Orbit
SSO
Country
Flag of USUS
Related business
Manufacturer
Unknown
Mission
Spacecraft
Bus & Motor
Unknown
Mass
Unknown
Launch date (UTC)
2002-06-24 (23 years ago)
Launch vehicle
Unknown
Launch site
Air Force Western Test Range (AFWTR)
Object type
Payload
Rocket body
Debris
Shape & HBR
Unknown shape, 0.1 m
Radar Cross Section
Small (<0.1 m²)

Expand to show TLE details & history
Last TLE update: 3 days ago

TLE from 3 days ago
0 NOAA 17 DEB
1 48731U 02032BQ  25346.67762611  .00009837  00000-0  29124-2 0  9993
2 48731  98.8137 319.1517 0032766 118.3565 242.0935 14.43271581246295
Epoch: 2025-12-12T16:15Z
TLE epoch observation values (Epoch: 2025-12-12T16:15:46.895Z)
Latitude
-0.00001°
Longitude
-6.40951°
Altitude
761.642 km
Speed
7.468 km/s
True Right ascension
21h 16m 36s
True Declination
0° 00' 00"
Sunlit
Object was in daylight at epoch
Visualization orbit readout
Latitude
Unknown
Longitude
Unknown
Altitude
Unknown
Speed
Unknown
Apparent Right ascension
Unknown
Apparent Declination
Unknown
Sunlit
N/A
Visualization observer readout
Local Sidereal Time
00:26:45
Azimuth
Unknown
Elevation
Unknown
Doppler factor
Unknown
Orbital elements
Apogee altitude
768.181 km
Perigee altitude
721.503 km
Semi-major axis
7,122.979 km
Eccentricity
0.00328
Inclination
98.8137°
RAAN
319.1517°
Arg. of periapsis
118.3565°
True anomaly
241.76233°
Mean anomaly
242.0935°
Eccentric anomaly
241.92785°
Mean motion
3.61036 °/min
Orbital period
99.71 mins
BSTAR
0.0029124
Loading maneuver chart data...
Computing Atmospheric mass density...
Loading historical data...
Loading historical data...
Loading historical data...
Loading historical data...
Loading historical data...
Loading historical data...
Loading historical data...

Documentation

Showing up to 5 results
|